Notices

What's New in latest Release from April 7th, 2021:

- Updated Glossary, including Speed of Maximum Gust, and Total Hourly Precipitation

- Updated national and regional climate services offices contacts and prices information

- Addition of station inventory lists for 1981-2010, 1971-2000, and 1961-1990 Normals.

If you haven't already, please take our survey and provide feedback about our website: https://eccc.sondage-survey.ca/f/LanguageSelection.aspx?s=442ca660-fcf1-47c0-95a9-59707d6fd709

Hourly Data Report for December 21, 2019

CARBERRY CS
MANITOBA
Current Station Operator: ECCC - MSC

49°54'20.900" N
99°21'26.800" W
383.50 m
5010547
71170
WZE

Download Data

Hourly Data (December 2019)
Hourly Data Report for December 21, 2019
TIME
LST
Temp Definition
°C
Dew Point Definition
°C
Rel Hum Definition
%
Precip. Amount Definition
mm

Wind Dir Definition
10's deg

Wind Spd Definition
km/h
Visibility Definition
km
Stn Press Definition
kPa
Hmdx Definition


Wind Chill Definition


Weather Definition


00:00 -9.7 -12.0 84 0.0 19 7   96.45   -14 LegendNANA
01:00 -10.5 -12.5 85 0.0 19 8   96.41   -15 LegendNANA
02:00 -10.3 -11.9 88 0.0 19 8   96.37   -15 LegendNANA
03:00 -7.9 -9.8 87 0.0 20 9   96.42   -12 LegendNANA
04:00 -7.9 -9.0 92 0.0 20 8   96.46   -12 LegendNANA
05:00 -4.8 -6.3 89 0.0 22 10   96.39   -9 LegendNANA
06:00 -3.0 -5.3 84 0.0 24 12   96.35   -7 LegendNANA
07:00 -3.5 -5.6 85 0.0 24 9   96.41   -7 LegendNANA
08:00 -4.3 -6.3 86 0.0 24 10   96.45   -8 LegendNANA
09:00 -4.7 -6.7 86 0.0 26 17   96.50   -11 LegendNANA
10:00 -4.5 -7.2 81 0.0 31 6   96.53   -7 LegendNANA
11:00 -4.5 -7.4 80 0.0 27 11   96.65   -9 LegendNANA
12:00 -4.6 -8.0 77 0.0 31 5   96.64   -7 LegendNANA
13:00 -3.9 -7.7 75 0.3 1 6   96.59   -7 LegendNANA
14:00 -3.8 -6.9 79 0.0 7 8   96.57   -7 LegendNANA
15:00 -5.1 -7.5 83 0.0 6 11   96.65   -10 LegendNANA
16:00 -6.1 -8.0 87 0.0 5 10   96.72   -11 LegendNANA
17:00 -7.5 -8.9 90 0.0 6 7   96.76   -11 LegendNANA
18:00 -8.1 -8.8 95 0.0 7 11   96.74   -13 LegendNANA
19:00 -9.2 -10.0 94 0.0 7 11   96.63   -15 LegendNANA
20:00 -8.6 -8.7 100 0.0 10 7   96.64   -12 LegendNANA
21:00 -10.1 -11.1 92 0.0 5 11   96.64   -16 LegendNANA
22:00 -10.6 -11.3 95 0.0 7 9   96.53   -16 LegendNANA
23:00 -11.3 -11.8 96 0.0 7 8   96.52   -16 LegendNANA

Notes on Data Quality.

Legend

  • E = Estimated
  • M = Missing
  • NA = Not Available*
  • [empty] = Indicates an unobserved value
Date modified: